TWISTERF5 Weather Reports


time (UTC)temp
C
wind
direction
speed
KPH
gust
KPH
rain 1hr
cm
rain 24hr
cm
rain mn
cm
humidity
%
barometer
mb
20260504151016 6 0 0.0 3.2 0.05 0.81 0.81 88 1003.8
20260504150517 6 0 1.6 3.2 0.08 0.81 0.81 89 1003.9
20260504141016 5 0 1.6 3.2 0.48 0.76 0.76 87 1003.6
20260504140516 5 0 0.0 3.2 0.51 0.74 0.74 86 1003.8
20260504130516 5 0 0.0 4.8 0.20 0.20 0.20 82 1003.7
20260504110515 4 178 8.0 17.7 0.00 0.00 0.00 71 1004.1
20260504100515 2 200 1.6 6.4 0.00 0.00 0.00 72 1004.1
20260504081534 0 200 1.6 4.8 0.00 0.00 0.00 77 1004.8
20260504081015 0 260 1.6 6.4 0.00 0.00 0.00 77 1004.8
20260504080516 0 156 3.2 6.4 0.00 0.00 0.00 78 1004.7
20260504050516 0 124 1.6 4.8 0.00 0.00 0.00 74 1005.3
20260504045515 0 134 0.0 6.4 0.00 0.00 0.00 74 1005.4
20260504045020 0 0 0.0 6.4 0.00 0.00 0.00 74 1005.5
20260504044546 0 118 1.6 4.8 0.00 0.00 0.00 75 1005.5
20260504044017 0 121 0.0 3.2 0.00 0.00 0.00 75 1005.6
20260504043517 0 121 0.0 4.8 0.00 0.00 0.00 75 1005.6
20260504043035 0 0 0.0 4.8 0.00 0.00 0.00 75 1005.7
20260504042516 0 144 0.0 3.2 0.00 0.00 0.00 75 1005.8
20260504042016 0 0 0.0 3.2 0.00 0.00 0.00 74 1005.7
20260504041534 0 178 0.0 3.2 0.00 0.00 0.00 74 1005.7
20260504041016 0 0 0.0 1.6 0.00 0.00 0.00 74 1005.7
20260504040519 0 0 0.0 4.8 0.00 0.00 0.00 74 1005.8
20260504040034 0 0 0.0 4.8 0.00 0.00 0.00 74 1005.8
20260504035517 0 178 0.0 4.8 0.00 0.00 0.00 74 1005.8
20260504035015 0 181 0.0 4.8 0.00 0.00 0.00 74 1005.8
20260504034540 0 0 0.0 3.2 0.00 0.00 0.00 75 1005.9
20260504034017 0 0 0.0 0.0 0.00 0.00 0.00 75 1005.8
20260504033517 0 0 0.0 0.0 0.00 0.00 0.00 76 1005.7
20260504033048 0 0 0.0 0.0 0.00 0.00 0.00 75 1005.7
20260504032514 0 0 0.0 1.6 0.00 0.00 0.00 75 1005.7
20260504032017 0 0 0.0 1.6 0.00 0.00 0.00 75 1005.7
20260504031536 0 0 0.0 1.6 0.00 0.00 0.00 75 1005.7
20260504031016 1 0 0.0 3.2 0.00 0.00 0.00 75 1005.7
20260504030516 1 0 0.0 3.2 0.00 0.00 0.00 75 1005.7
20260504030035 1 229 0.0 3.2 0.00 0.00 0.00 76 1005.7
20260504025514 1 229 0.0 3.2 0.00 0.00 0.00 77 1005.7
20260504025014 1 0 0.0 0.0 0.00 0.00 0.00 76 1005.8
20260504024533 1 0 0.0 1.6 0.00 0.00 0.00 76 1005.8
20260504024018 1 0 0.0 1.6 0.00 0.00 0.00 76 1005.9
20260504023517 1 0 0.0 0.0 0.00 0.00 0.00 76 1005.8
20260504023030 1 0 0.0 0.0 0.00 0.00 0.00 75 1005.8
20260504022517 1 0 0.0 0.0 0.00 0.00 0.00 75 1005.9
20260504022016 1 0 0.0 0.0 0.00 0.00 0.00 75 1005.8
20260504021537 1 0 0.0 0.0 0.00 0.00 0.00 75 1005.8
20260504021016 2 0 0.0 0.0 0.00 0.00 0.00 74 1005.8
20260504020516 2 0 0.0 0.0 0.00 0.00 0.00 74 1005.9
20260504020035 2 0 0.0 0.0 0.00 0.00 0.00 74 1005.9
20260504015515 2 0 0.0 0.0 0.00 0.00 0.00 74 1006.0
20260504015016 2 0 0.0 0.0 0.00 0.00 0.00 73 1006.0
20260504014536 2 0 0.0 0.0 0.00 0.00 0.00 72 1006.0
20260504014016 2 0 0.0 0.0 0.00 0.00 0.00 72 1006.1
20260504013518 2 0 0.0 0.0 0.00 0.00 0.00 72 1006.1
20260504013038 3 0 0.0 0.0 0.00 0.00 0.00 72 1006.1
20260504012515 3 0 0.0 0.0 0.00 0.00 0.00 71 1006.1
20260504012017 3 0 0.0 0.0 0.00 0.00 0.00 72 1006.1
20260504011532 3 0 0.0 0.0 0.00 0.00 0.00 71 1006.0
20260504011016 3 0 0.0 0.0 0.00 0.00 0.00 70 1006.0
20260504010520 3 0 0.0 0.0 0.00 0.00 0.00 70 1006.0
20260504010041 3 0 0.0 0.0 0.00 0.00 0.00 69 1006.0
20260504005517 4 0 0.0 0.0 0.00 0.00 0.00 68 1006.0
20260504005016 4 0 0.0 0.0 0.00 0.00 0.00 67 1006.0
20260504004531 5 0 0.0 0.0 0.00 0.00 0.00 67 1005.9
20260504004015 5 0 0.0 0.0 0.00 0.00 0.00 64 1005.9
20260504003516 5 0 0.0 0.0 0.00 0.00 0.00 63 1005.9
20260504003035 5 0 0.0 0.0 0.00 0.00 0.00 62 1005.8
20260504002515 5 0 0.0 0.0 0.00 0.00 0.00 60 1005.8
20260504002016 6 0 0.0 0.0 0.00 0.00 0.00 59 1005.7
20260504001532 6 0 0.0 0.0 0.00 0.00 0.00 58 1005.7
20260504001016 6 0 0.0 0.0 0.00 0.00 0.00 57 1005.7
20260504000515 6 0 0.0 1.6 0.00 0.00 0.00 57 1005.7
20260504000039 6 0 0.0 1.6 0.00 0.00 0.00 56 1005.7
20260503235516 7 0 0.0 3.2 0.00 0.00 0.00 56 1005.8
20260503235016 7 283 0.0 3.2 0.00 0.00 0.00 55 1005.7
20260503234534 7 323 0.0 1.6 0.00 0.00 0.00 54 1005.6
20260503234020 7 323 0.0 1.6 0.00 0.00 0.00 53 1005.6
20260503233517 7 0 0.0 1.6 0.00 0.00 0.00 52 1005.6
20260503233030 8 0 0.0 3.2 0.00 0.00 0.00 51 1005.7
20260503232519 8 0 0.0 3.2 0.00 0.00 0.00 49 1005.6
20260503232020 8 0 0.0 4.8 0.00 0.00 0.00 49 1005.7
20260503231530 8 0 1.6 4.8 0.00 0.00 0.00 49 1005.7
20260503231017 8 299 0.0 6.4 0.00 0.00 0.00 47 1005.6
20260503230517 8 317 1.6 6.4 0.00 0.00 0.00 47 1005.6
20260503230030 9 0 1.6 6.4 0.00 0.00 0.00 46 1005.7
20260503225516 9 22 0.0 8.0 0.00 0.00 0.00 45 1005.6
20260503225016 9 13 1.6 8.0 0.00 0.00 0.00 45 1005.7
20260503224534 10 9 3.2 12.9 0.00 0.00 0.00 44 1005.6
20260503224023 10 338 4.8 12.9 0.00 0.00 0.00 44 1005.7
20260503223518 10 312 1.6 9.7 0.00 0.00 0.00 45 1005.7
20260503223033 10 349 3.2 11.3 0.00 0.00 0.00 43 1005.7
20260503222516 10 333 1.6 11.3 0.00 0.00 0.00 43 1005.7
20260503222015 10 302 3.2 9.7 0.00 0.00 0.00 44 1005.8
20260503221541 10 0 0.0 8.0 0.00 0.00 0.00 43 1005.8
20260503221016 10 5 3.2 11.3 0.00 0.00 0.00 44 1005.9
20260503220516 10 282 1.6 12.9 0.00 0.00 0.00 43 1005.8
20260503220035 10 258 6.4 12.9 0.00 0.00 0.00 42 1005.9
20260503215517 10 12 3.2 11.3 0.00 0.00 0.00 44 1005.8
20260503215016 10 211 1.6 17.7 0.00 0.00 0.00 42 1005.9
20260503214534 10 284 6.4 17.7 0.00 0.00 0.00 43 1006.0
20260503214020 10 309 4.8 12.9 0.00 0.00 0.00 44 1006.0
20260503213519 10 269 1.6 14.5 0.00 0.00 0.00 44 1006.0
20260503213038 9 315 6.4 14.5 0.00 0.00 0.00 47 1006.0
20260503212516 8 298 4.8 12.9 0.00 0.00 0.00 47 1006.0
20260503212015 8 329 0.0 9.7 0.00 0.00 0.00 49 1006.1
20260503211533 8 0 3.2 12.9 0.00 0.00 0.00 49 1006.1
20260503211016 8 315 3.2 12.9 0.00 0.00 0.00 48 1006.1
20260503210516 8 0 3.2 9.7 0.00 0.00 0.00 48 1006.2
20260503210033 8 324 3.2 9.7 0.00 0.00 0.00 48 1006.1
20260503205517 8 325 3.2 11.3 0.00 0.00 0.00 49 1006.1
20260503205022 8 307 1.6 12.9 0.00 0.00 0.00 48 1006.1
20260503204534 8 281 4.8 17.7 0.00 0.00 0.00 48 1006.0
20260503204015 8 327 6.4 17.7 0.00 0.00 0.00 47 1006.1
20260503203519 8 321 4.8 17.7 0.00 0.00 0.00 47 1006.0
20260503203035 8 243 8.0 19.3 0.00 0.00 0.00 46 1006.1
20260503202523 8 0 6.4 19.3 0.00 0.00 0.00 47 1006.1
20260503202017 8 290 6.4 17.7 0.00 0.00 0.00 47 1006.0
20260503201533 8 290 4.8 14.5 0.00 0.00 0.00 47 1006.0
20260503201016 8 302 4.8 14.5 0.00 0.00 0.00 46 1006.1
20260503200516 8 306 4.8 14.5 0.00 0.00 0.00 48 1006.1
20260503200034 8 309 4.8 22.5 0.00 0.00 0.00 47 1006.1
20260503195517 8 314 9.7 22.5 0.00 0.03 0.00 46 1006.1
20260503195016 9 309 8.0 20.9 0.00 0.03 0.00 45 1006.2
20260503194536 9 274 9.7 20.9 0.00 0.03 0.00 44 1006.1
20260503194016 10 331 6.4 14.5 0.00 0.03 0.00 45 1006.2
20260503193520 10 325 4.8 16.1 0.00 0.03 0.00 45 1006.1
20260503193036 10 333 4.8 16.1 0.00 0.03 0.00 47 1006.2
20260503192515 9 355 4.8 16.1 0.00 0.03 0.00 47 1006.3
20260503192022 8 269 4.8 16.1 0.00 0.03 0.00 48 1006.3
20260503191536 8 355 4.8 17.7 0.00 0.03 0.00 48 1006.4
20260503191017 8 58 8.0 17.7 0.00 0.03 0.00 47 1006.5
20260503190517 8 287 6.4 17.7 0.00 0.03 0.00 48 1006.5
20260503190036 8 327 6.4 17.7 0.00 0.03 0.00 47 1006.6
20260503185516 8 288 6.4 22.5 0.00 0.05 0.00 46 1006.5
20260503185019 8 291 9.7 22.5 0.00 0.05 0.00 45 1006.5
20260503184534 9 325 11.3 22.5 0.00 0.05 0.00 46 1006.5
20260503184016 9 313 11.3 20.9 0.00 0.05 0.00 45 1006.5
20260503183520 9 301 6.4 19.3 0.00 0.05 0.00 46 1006.5
20260503183037 8 337 8.0 19.3 0.00 0.05 0.00 46 1006.6
20260503182515 8 280 9.7 22.5 0.00 0.05 0.00 47 1006.5
20260503182016 8 355 6.4 22.5 0.00 0.05 0.00 47 1006.5
20260503181604 8 355 8.0 22.5 0.00 0.05 0.00 48 1006.6
20260503181019 8 307 8.0 27.4 0.00 0.05 0.00 49 1006.6
20260503180519 8 271 11.3 27.4 0.00 0.05 0.00 47 1006.6
20260503180040 9 334 11.3 27.4 0.00 0.05 0.00 46 1006.6
20260503175516 9 292 8.0 25.7 0.00 0.05 0.00 45 1006.7
20260503175013 10 313 11.3 24.1 0.00 0.05 0.00 42 1006.5
20260503174532 10 288 12.9 24.1 0.00 0.05 0.00 41 1006.5
20260503174016 10 291 9.7 24.1 0.00 0.05 0.00 40 1006.6
20260503173516 11 298 6.4 22.5 0.00 0.05 0.00 38 1006.5
20260503173045 11 307 9.7 22.5 0.00 0.05 0.00 40 1006.6
20260503172515 10 271 4.8 24.1 0.00 0.05 0.00 44 1006.7
20260503172015 10 270 9.7 24.1 0.00 0.05 0.00 41 1006.9
20260503171532 11 258 6.4 20.9 0.00 0.05 0.00 42 1006.8
20260503171016 11 263 8.0 19.3 0.00 0.05 0.00 40 1007.0
20260503170519 11 292 6.4 25.7 0.00 0.05 0.00 41 1007.0